• en France
  • Liste des pays
  • À 7 jours
  • Température de l'eau
  • Carte satellitaire
  • Carte météo
  • Widgets météo
  • user-avatar
    Se connecter

    Météo par heure à Dolgi

    Ce jour, 20 Septembre, Jeudi

    Heure Température Précipitation Vent Pression Humidité
    00:00 +16°C° 0 mm 3 m/s 753 mmHg 90%
    01:00 +14°C° 0 mm 3 m/s 753 mmHg 92%
    02:00 +13°C° 0 mm 3 m/s 753 mmHg 94%
    03:00 +13°C° 0 mm 3 m/s 753 mmHg 95%
    04:00 +12°C° 0 mm 3 m/s 754 mmHg 96%
    05:00 +12°C° 0 mm 3 m/s 754 mmHg 97%
    06:00 +13°C° 0 mm 3 m/s 754 mmHg 93%
    07:00 +14°C° 0 mm 3 m/s 754 mmHg 89%
    08:00 +16°C° 0 mm 3 m/s 755 mmHg 86%
    09:00 +17°C° 0 mm 3 m/s 755 mmHg 79%
    10:00 +19°C° 0 mm 3 m/s 755 mmHg 72%
    11:00 +21°C° 0 mm 3 m/s 755 mmHg 65%
    12:00 +21°C° 0 mm 3 m/s 755 mmHg 63%
    13:00 +22°C° 0 mm 3 m/s 755 mmHg 61%
    14:00 +24°C° 0 mm 3 m/s 755 mmHg 59%
    15:00 +22°C° 0 mm 3 m/s 755 mmHg 63%
    16:00 +22°C° 0 mm 3 m/s 755 mmHg 68%
    17:00 +21°C° 0 mm 2 m/s 755 mmHg 73%
    18:00 +20°C° 0 mm 2 m/s 755 mmHg 77%
    19:00 +19°C° 0 mm 2 m/s 755 mmHg 82%
    20:00 +17°C° 0 mm 3 m/s 755 mmHg 86%
    21:00 +17°C° 0 mm 2 m/s 755 mmHg 87%
    22:00 +17°C° 0 mm 2 m/s 755 mmHg 89%
    23:00 +17°C° 0 mm 2 m/s 755 mmHg 91%

    Demain, 21 Septembre, Vendredi

    Heure Température Précipitation Vent Pression Humidité
    00:00 +16°C° 0 mm 2 m/s 755 mmHg 92%
    01:00 +16°C° 0 mm 2 m/s 755 mmHg 94%
    02:00 +16°C° 0 mm 2 m/s 756 mmHg 96%
    03:00 +16°C° 0 mm 2 m/s 755 mmHg 96%
    04:00 +15°C° 0 mm 2 m/s 755 mmHg 97%
    05:00 +15°C° 0 mm 2 m/s 755 mmHg 97%
    06:00 +16°C° 0 mm 3 m/s 755 mmHg 93%
    07:00 +17°C° 0 mm 3 m/s 756 mmHg 90%
    08:00 +18°C° 0 mm 3 m/s 756 mmHg 86%
    09:00 +19°C° 0 mm 3 m/s 756 mmHg 79%
    10:00 +21°C° 0 mm 3 m/s 756 mmHg 71%
    11:00 +24°C° 0 mm 3 m/s 756 mmHg 63%
    12:00 +24°C° 0.1 mm 3 m/s 755 mmHg 62%
    13:00 +25°C° 0.1 mm 3 m/s 755 mmHg 61%
    14:00 +26°C° 0.1 mm 4 m/s 754 mmHg 61%
    15:00 +25°C° 0 mm 3 m/s 754 mmHg 64%
    16:00 +25°C° 0 mm 3 m/s 754 mmHg 68%
    17:00 +24°C° 0 mm 2 m/s 753 mmHg 71%
    18:00 +22°C° 0 mm 3 m/s 753 mmHg 73%
    19:00 +21°C° 0 mm 3 m/s 753 mmHg 75%
    20:00 +21°C° 0 mm 4 m/s 753 mmHg 78%
    21:00 +20°C° 0 mm 4 m/s 752 mmHg 77%
    22:00 +20°C° 0 mm 4 m/s 752 mmHg 77%
    23:00 +20°C° 0 mm 4 m/s 752 mmHg 77%

    Après-demain, 22 Septembre, Samedi

    Heure Température Précipitation Vent Pression Humidité
    00:00 +19°C° 0 mm 5 m/s 751 mmHg 75%
    01:00 +19°C° 0 mm 5 m/s 750 mmHg 72%
    02:00 +19°C° 0 mm 5 m/s 750 mmHg 70%
    03:00 +19°C° 0 mm 5 m/s 749 mmHg 69%
    04:00 +19°C° 0 mm 5 m/s 749 mmHg 69%
    05:00 +19°C° 0 mm 5 m/s 748 mmHg 68%
    06:00 +17°C° 0.1 mm 5 m/s 748 mmHg 70%
    07:00 +17°C° 0.1 mm 5 m/s 748 mmHg 72%
    08:00 +17°C° 0.1 mm 6 m/s 748 mmHg 74%
    09:00 +15°C° 0.8 mm 5 m/s 748 mmHg 79%
    10:00 +13°C° 0.8 mm 4 m/s 749 mmHg 83%
    11:00 +12°C° 0.8 mm 3 m/s 749 mmHg 87%
    12:00 +12°C° 0.2 mm 4 m/s 749 mmHg 84%
    13:00 +13°C° 0.2 mm 4 m/s 749 mmHg 81%
    14:00 +14°C° 0.2 mm 4 m/s 749 mmHg 77%
    15:00 +13°C° 0.1 mm 4 m/s 749 mmHg 77%
    16:00 +13°C° 0.1 mm 4 m/s 749 mmHg 77%
    17:00 +13°C° 0.1 mm 4 m/s 749 mmHg 77%
    18:00 +13°C° 0.1 mm 4 m/s 749 mmHg 78%
    19:00 +12°C° 0.1 mm 4 m/s 749 mmHg 79%
    20:00 +11°C° 0.1 mm 3 m/s 750 mmHg 80%
    21:00 +11°C° 0 mm 3 m/s 750 mmHg 82%
    22:00 +10°C° 0 mm 3 m/s 750 mmHg 83%
    23:00 +10°C° 0 mm 3 m/s 750 mmHg 84%

    23 Septembre, Dimanche

    Heure Température Précipitation Vent Pression Humidité
    00:00 +9°C° 0 mm 3 m/s 750 mmHg 86%
    01:00 +8°C° 0 mm 3 m/s 750 mmHg 88%
    02:00 +8°C° 0 mm 3 m/s 750 mmHg 90%
    03:00 +8°C° 0 mm 3 m/s 749 mmHg 90%
    04:00 +7°C° 0 mm 3 m/s 749 mmHg 91%
    05:00 +7°C° 0 mm 3 m/s 749 mmHg 91%
    06:00 +7°C° 0 mm 4 m/s 749 mmHg 87%
    07:00 +8°C° 0 mm 4 m/s 748 mmHg 83%
    08:00 +10°C° 0 mm 4 m/s 748 mmHg 80%
    09:00 +10°C° 0 mm 4 m/s 748 mmHg 78%
    10:00 +11°C° 0 mm 4 m/s 748 mmHg 76%
    11:00 +11°C° 0 mm 4 m/s 747 mmHg 74%
    12:00 +12°C° 0.1 mm 4 m/s 747 mmHg 71%
    13:00 +13°C° 0.1 mm 4 m/s 747 mmHg 68%
    14:00 +13°C° 0.1 mm 4 m/s 747 mmHg 65%
    15:00 +13°C° 0.2 mm 4 m/s 747 mmHg 69%
    16:00 +12°C° 0.2 mm 4 m/s 747 mmHg 73%
    17:00 +11°C° 0.2 mm 3 m/s 747 mmHg 78%
    18:00 +10°C° 0.1 mm 3 m/s 747 mmHg 81%
    19:00 +10°C° 0.1 mm 3 m/s 747 mmHg 85%
    20:00 +9°C° 0.1 mm 3 m/s 747 mmHg 89%
    21:00 +8°C° 0 mm 3 m/s 747 mmHg 91%
    22:00 +8°C° 0 mm 3 m/s 747 mmHg 92%
    23:00 +8°C° 0 mm 3 m/s 748 mmHg 94%

    24 Septembre, Lundi

    Heure Température Précipitation Vent Pression Humidité
    00:00 +8°C° 0 mm 3 m/s 748 mmHg 94%
    01:00 +7°C° 0 mm 3 m/s 748 mmHg 95%
    02:00 +7°C° 0 mm 3 m/s 748 mmHg 96%
    03:00 +6°C° 0 mm 2 m/s 748 mmHg 96%
    04:00 +6°C° 0 mm 2 m/s 748 mmHg 97%
    05:00 +6°C° 0 mm 2 m/s 748 mmHg 97%
    06:00 +6°C° 0 mm 2 m/s 748 mmHg 95%
    07:00 +7°C° 0 mm 2 m/s 748 mmHg 93%
    08:00 +8°C° 0 mm 2 m/s 748 mmHg 91%
    09:00 +9°C° 0 mm 2 m/s 747 mmHg 86%
    10:00 +10°C° 0 mm 2 m/s 747 mmHg 81%
    11:00 +12°C° 0 mm 2 m/s 747 mmHg 75%
    12:00 +13°C° 0 mm 2 m/s 746 mmHg 74%
    13:00 +12°C° 0 mm 3 m/s 746 mmHg 72%
    14:00 +12°C° 0 mm 3 m/s 745 mmHg 70%
    15:00 +11°C° 1 mm 3 m/s 744 mmHg 76%
    16:00 +10°C° 1 mm 3 m/s 744 mmHg 83%
    17:00 +8°C° 1 mm 4 m/s 743 mmHg 89%
    18:00 +8°C° 1.1 mm 4 m/s 742 mmHg 89%
    19:00 +7°C° 1.1 mm 4 m/s 741 mmHg 90%
    20:00 +7°C° 1.1 mm 5 m/s 740 mmHg 90%
    21:00 +7°C° 1.4 mm 5 m/s 739 mmHg 91%
    22:00 +7°C° 1.4 mm 5 m/s 738 mmHg 91%
    23:00 +7°C° 1.4 mm 5 m/s 737 mmHg 92%

    25 Septembre, Mardi

    Heure Température Précipitation Vent Pression Humidité
    00:00 +6°C° 2.9 mm 5 m/s 736 mmHg 93%
    01:00 +5°C° 2.9 mm 6 m/s 735 mmHg 94%
    02:00 +5°C° 2.9 mm 6 m/s 734 mmHg 94%
    03:00 +5°C° 2.1 mm 6 m/s 733 mmHg 94%
    04:00 +5°C° 2.1 mm 6 m/s 733 mmHg 94%
    05:00 +5°C° 2.1 mm 6 m/s 732 mmHg 93%
    06:00 +5°C° 1.4 mm 6 m/s 732 mmHg 93%
    07:00 +5°C° 1.4 mm 6 m/s 732 mmHg 93%
    08:00 +5°C° 1.4 mm 6 m/s 732 mmHg 93%
    09:00 +5°C° 1.5 mm 6 m/s 733 mmHg 92%
    10:00 +5°C° 1.5 mm 6 m/s 733 mmHg 92%
    11:00 +5°C° 1.5 mm 7 m/s 734 mmHg 92%
    12:00 +5°C° 1.5 mm 7 m/s 734 mmHg 91%
    13:00 +5°C° 1.5 mm 7 m/s 735 mmHg 91%
    14:00 +5°C° 1.5 mm 8 m/s 736 mmHg 90%
    15:00 +5°C° 0.9 mm 8 m/s 737 mmHg 89%
    16:00 +5°C° 0.9 mm 8 m/s 738 mmHg 88%
    17:00 +5°C° 0.9 mm 8 m/s 739 mmHg 88%
    18:00 +5°C° 0.7 mm 8 m/s 739 mmHg 88%
    19:00 +4°C° 0.7 mm 8 m/s 740 mmHg 88%
    20:00 +4°C° 0.7 mm 8 m/s 741 mmHg 88%
    21:00 +4°C° 0.5 mm 8 m/s 742 mmHg 88%
    22:00 +4°C° 0.5 mm 7 m/s 742 mmHg 88%
    23:00 +4°C° 0.5 mm 7 m/s 743 mmHg 88%
    Voir plus